Year,Month,Day,Hour,Minute,Value (Times are PST for temperature in C)
2018,06,27,00,00,11.20
2018,06,27,00,01,11.20
2018,06,27,00,02,11.20
2018,06,27,00,03,11.20
2018,06,27,00,04,11.20
2018,06,27,00,05,11.10
2018,06,27,00,06,11.10
2018,06,27,00,07,11.10
2018,06,27,00,08,11.10
2018,06,27,00,09,11.10
2018,06,27,00,10,11.10
2018,06,27,00,11,11.00
2018,06,27,00,12,11.00
2018,06,27,00,13,11.00
2018,06,27,00,14,11.00
2018,06,27,00,15,11.00
2018,06,27,00,16,10.90
2018,06,27,00,17,10.90
2018,06,27,00,18,10.90
2018,06,27,00,19,10.90
2018,06,27,00,20,10.90
2018,06,27,00,21,10.90
2018,06,27,00,22,10.80
2018,06,27,00,23,10.80
2018,06,27,00,24,10.80
2018,06,27,00,25,10.80
2018,06,27,00,26,10.80
2018,06,27,00,27,10.80
2018,06,27,00,28,10.70
2018,06,27,00,29,10.70
2018,06,27,00,30,10.70
2018,06,27,00,31,10.70
2018,06,27,00,32,10.70
2018,06,27,00,33,10.70
2018,06,27,00,34,10.60
2018,06,27,00,35,10.60
2018,06,27,00,36,10.60
2018,06,27,00,37,10.60
2018,06,27,00,38,10.60
2018,06,27,00,39,10.60
2018,06,27,00,40,10.60
2018,06,27,00,41,10.60
2018,06,27,00,42,10.60
2018,06,27,00,43,10.60
2018,06,27,00,44,10.60
2018,06,27,00,45,10.60
2018,06,27,00,46,10.60
2018,06,27,00,47,10.60
2018,06,27,00,48,10.60
2018,06,27,00,49,10.60
2018,06,27,00,50,10.60
2018,06,27,00,51,10.60
2018,06,27,00,52,10.60
2018,06,27,00,53,10.60
2018,06,27,00,54,10.60
2018,06,27,00,55,10.60
2018,06,27,00,56,10.60
2018,06,27,00,57,10.60
2018,06,27,00,58,10.60
2018,06,27,00,59,10.60
2018,06,27,01,00,10.60
2018,06,27,01,01,10.60
2018,06,27,01,02,10.60
2018,06,27,01,03,10.60
2018,06,27,01,04,10.60
2018,06,27,01,05,10.60
2018,06,27,01,06,10.60
2018,06,27,01,07,10.60
2018,06,27,01,08,10.60
2018,06,27,01,09,10.60
2018,06,27,01,10,10.60
2018,06,27,01,11,10.60
2018,06,27,01,12,10.60
2018,06,27,01,13,10.60
2018,06,27,01,14,10.60
2018,06,27,01,15,10.60
2018,06,27,01,16,10.60
2018,06,27,01,17,10.60
2018,06,27,01,18,10.60
2018,06,27,01,19,10.60
2018,06,27,01,20,10.60
2018,06,27,01,21,10.60
2018,06,27,01,22,10.60
2018,06,27,01,23,10.60
2018,06,27,01,24,10.60
2018,06,27,01,25,10.60
2018,06,27,01,26,10.60
2018,06,27,01,27,10.60
2018,06,27,01,28,10.60
2018,06,27,01,29,10.60
2018,06,27,01,30,10.60
2018,06,27,01,31,10.60
2018,06,27,01,32,10.60
2018,06,27,01,33,10.60
2018,06,27,01,34,10.60
2018,06,27,01,35,10.60
2018,06,27,01,36,10.60
2018,06,27,01,37,10.60
2018,06,27,01,38,10.60
2018,06,27,01,39,10.50
2018,06,27,01,40,10.50
2018,06,27,01,41,10.50
2018,06,27,01,42,10.60
2018,06,27,01,43,10.50
2018,06,27,01,44,10.50
2018,06,27,01,45,10.50
2018,06,27,01,46,10.50
2018,06,27,01,47,10.50
2018,06,27,01,48,10.60
2018,06,27,01,49,10.60
2018,06,27,01,50,10.60
2018,06,27,01,51,10.60
2018,06,27,01,52,10.60
2018,06,27,01,53,10.60
2018,06,27,01,54,10.60
2018,06,27,01,55,10.60
2018,06,27,01,56,10.60
2018,06,27,01,57,10.50
2018,06,27,01,58,10.50
2018,06,27,01,59,10.50
2018,06,27,02,00,10.50
2018,06,27,02,01,10.50
2018,06,27,02,02,10.50
2018,06,27,02,03,10.40
2018,06,27,02,04,10.40
2018,06,27,02,05,10.40
2018,06,27,02,06,10.40
2018,06,27,02,07,10.40
2018,06,27,02,08,10.40
2018,06,27,02,09,10.40
2018,06,27,02,10,10.30
2018,06,27,02,11,10.30
2018,06,27,02,12,10.30
2018,06,27,02,13,10.30
2018,06,27,02,14,10.30
2018,06,27,02,15,10.30
2018,06,27,02,16,10.30
2018,06,27,02,17,10.20
2018,06,27,02,18,10.20
2018,06,27,02,19,10.20
2018,06,27,02,20,10.20
2018,06,27,02,21,10.20
2018,06,27,02,22,10.20
2018,06,27,02,23,10.20
2018,06,27,02,24,10.10
2018,06,27,02,25,10.10
2018,06,27,02,26,10.10
2018,06,27,02,27,10.10
2018,06,27,02,28,10.10
2018,06,27,02,29,10.00
2018,06,27,02,30,10.00
2018,06,27,02,31,10.00
2018,06,27,02,32,9.90
2018,06,27,02,33,9.90
2018,06,27,02,34,9.90
2018,06,27,02,35,9.90
2018,06,27,02,36,9.90
2018,06,27,02,37,9.90
2018,06,27,02,38,9.90
2018,06,27,02,39,9.90
2018,06,27,02,40,9.90
2018,06,27,02,41,9.90
2018,06,27,02,42,9.90
2018,06,27,02,43,9.90
2018,06,27,02,44,9.90
2018,06,27,02,45,9.80
2018,06,27,02,46,9.80
2018,06,27,02,47,9.80
2018,06,27,02,48,9.80
2018,06,27,02,49,9.80
2018,06,27,02,50,9.80
2018,06,27,02,51,9.80
2018,06,27,02,52,9.80
2018,06,27,02,53,9.80
2018,06,27,02,54,9.80
2018,06,27,02,55,9.80
2018,06,27,02,56,9.80
2018,06,27,02,57,9.80
2018,06,27,02,58,9.80
2018,06,27,02,59,9.80
2018,06,27,03,00,9.80
2018,06,27,03,01,9.80
2018,06,27,03,02,9.80
2018,06,27,03,03,9.80
2018,06,27,03,04,9.80
2018,06,27,03,05,9.80
2018,06,27,03,06,9.70
2018,06,27,03,07,9.70
2018,06,27,03,08,9.70
2018,06,27,03,09,9.70
2018,06,27,03,10,9.70
2018,06,27,03,11,9.70
2018,06,27,03,12,9.70
2018,06,27,03,13,9.60
2018,06,27,03,14,9.60
2018,06,27,03,15,9.60
2018,06,27,03,16,9.60
2018,06,27,03,17,9.60
2018,06,27,03,18,9.60
2018,06,27,03,19,9.60
2018,06,27,03,20,9.60
2018,06,27,03,21,9.60
2018,06,27,03,22,9.50
2018,06,27,03,23,9.50
2018,06,27,03,24,9.50
2018,06,27,03,25,9.50
2018,06,27,03,26,9.50
2018,06,27,03,27,9.50
2018,06,27,03,28,9.50
2018,06,27,03,29,9.50
2018,06,27,03,30,9.50
2018,06,27,03,31,9.50
2018,06,27,03,32,9.50
2018,06,27,03,33,9.50
2018,06,27,03,34,9.50
2018,06,27,03,35,9.50
2018,06,27,03,36,9.50
2018,06,27,03,37,9.50
2018,06,27,03,38,9.50
2018,06,27,03,39,9.50
2018,06,27,03,40,9.50
2018,06,27,03,41,9.50
2018,06,27,03,42,9.50
2018,06,27,03,43,9.50
2018,06,27,03,44,9.50
2018,06,27,03,45,9.50
2018,06,27,03,46,9.50
2018,06,27,03,47,9.50
2018,06,27,03,48,9.50
2018,06,27,03,49,9.50
2018,06,27,03,50,9.50
2018,06,27,03,51,9.50
2018,06,27,03,52,9.50
2018,06,27,03,53,9.50
2018,06,27,03,54,9.50
2018,06,27,03,55,9.50
2018,06,27,03,56,9.40
2018,06,27,03,57,9.40
2018,06,27,03,58,9.40
2018,06,27,03,59,9.40
2018,06,27,04,00,9.40
2018,06,27,04,01,9.40
2018,06,27,04,02,9.40
2018,06,27,04,03,9.40
2018,06,27,04,04,9.30
2018,06,27,04,05,9.30
2018,06,27,04,06,9.30
2018,06,27,04,07,9.30
2018,06,27,04,08,9.30
2018,06,27,04,09,9.30
2018,06,27,04,10,9.30
2018,06,27,04,11,9.30
2018,06,27,04,12,9.30
2018,06,27,04,13,9.30
2018,06,27,04,14,9.30
2018,06,27,04,15,9.20
2018,06,27,04,16,9.20
2018,06,27,04,17,9.20
2018,06,27,04,18,9.20
2018,06,27,04,19,9.20
2018,06,27,04,20,9.20
2018,06,27,04,21,9.20
2018,06,27,04,22,9.20
2018,06,27,04,23,9.20
2018,06,27,04,24,9.20
2018,06,27,04,25,9.20
2018,06,27,04,26,9.20
2018,06,27,04,27,9.10
2018,06,27,04,28,9.10
2018,06,27,04,29,9.10
2018,06,27,04,30,9.10
2018,06,27,04,31,9.10
2018,06,27,04,32,9.10
2018,06,27,04,33,9.10
2018,06,27,04,34,9.10
2018,06,27,04,35,9.10
2018,06,27,04,36,9.10
2018,06,27,04,37,9.10
2018,06,27,04,38,9.10
2018,06,27,04,39,9.10
2018,06,27,04,40,9.10
2018,06,27,04,41,9.10
2018,06,27,04,42,9.10
2018,06,27,04,43,9.00
2018,06,27,04,44,9.00
2018,06,27,04,45,9.00
2018,06,27,04,46,9.00
2018,06,27,04,47,9.00
2018,06,27,04,48,9.00
2018,06,27,04,49,9.00
2018,06,27,04,50,9.00
2018,06,27,04,51,9.00
2018,06,27,04,52,9.00
2018,06,27,04,53,9.00
2018,06,27,04,54,9.00
2018,06,27,04,55,9.00
2018,06,27,04,56,9.00
2018,06,27,04,57,9.00
2018,06,27,04,58,9.00
2018,06,27,04,59,9.00
2018,06,27,05,00,8.90
2018,06,27,05,01,9.00
2018,06,27,05,02,8.90
2018,06,27,05,03,8.90
2018,06,27,05,04,8.90
2018,06,27,05,05,8.90
2018,06,27,05,06,8.90
2018,06,27,05,07,8.90
2018,06,27,05,08,8.90
2018,06,27,05,09,8.90
2018,06,27,05,10,8.90
2018,06,27,05,11,8.90
2018,06,27,05,12,8.90
2018,06,27,05,13,8.90
2018,06,27,05,14,8.90
2018,06,27,05,15,8.80
2018,06,27,05,16,8.80
2018,06,27,05,17,8.80
2018,06,27,05,18,8.80
2018,06,27,05,19,8.80
2018,06,27,05,20,8.80
2018,06,27,05,21,8.80
2018,06,27,05,22,8.80
2018,06,27,05,23,8.80
2018,06,27,05,24,8.80
2018,06,27,05,25,8.80
2018,06,27,05,26,8.80
2018,06,27,05,27,8.80
2018,06,27,05,28,8.80
2018,06,27,05,29,8.80
2018,06,27,05,30,8.80
2018,06,27,05,31,8.80
2018,06,27,05,32,8.80
2018,06,27,05,33,8.80
2018,06,27,05,34,8.80
2018,06,27,05,35,8.80
2018,06,27,05,36,8.80
2018,06,27,05,37,8.80
2018,06,27,05,38,8.80
2018,06,27,05,39,8.80
2018,06,27,05,40,8.80
2018,06,27,05,41,8.80
2018,06,27,05,42,8.80
2018,06,27,05,43,8.80
2018,06,27,05,44,8.80
2018,06,27,05,45,8.90
2018,06,27,05,46,8.90
2018,06,27,05,47,8.90
2018,06,27,05,48,8.90
2018,06,27,05,49,8.90
2018,06,27,05,50,8.90
2018,06,27,05,51,8.90
2018,06,27,05,52,8.90
2018,06,27,05,53,8.90
2018,06,27,05,54,8.90
2018,06,27,05,55,8.90
2018,06,27,05,56,8.90
2018,06,27,05,57,8.90
2018,06,27,05,58,8.90
2018,06,27,05,59,8.90
2018,06,27,06,00,9.00
2018,06,27,06,01,9.00
2018,06,27,06,02,9.00
2018,06,27,06,03,9.00
2018,06,27,06,04,9.00
2018,06,27,06,05,9.00
2018,06,27,06,06,9.00
2018,06,27,06,07,9.10
2018,06,27,06,08,9.10
2018,06,27,06,09,9.10
2018,06,27,06,10,9.10
2018,06,27,06,11,9.10
2018,06,27,06,12,9.10
2018,06,27,06,13,9.10
2018,06,27,06,14,9.10
2018,06,27,06,15,9.10
2018,06,27,06,16,9.20
2018,06,27,06,17,9.20
2018,06,27,06,18,9.20
2018,06,27,06,19,9.30
2018,06,27,06,20,9.30
2018,06,27,06,21,9.30
2018,06,27,06,22,9.30
2018,06,27,06,23,9.40
2018,06,27,06,24,9.40
2018,06,27,06,25,9.40
2018,06,27,06,26,9.40
2018,06,27,06,27,9.50
2018,06,27,06,28,9.50
2018,06,27,06,29,9.60
2018,06,27,06,30,9.60
2018,06,27,06,31,9.60
2018,06,27,06,32,9.70
2018,06,27,06,33,9.70
2018,06,27,06,34,9.80
2018,06,27,06,35,9.80
2018,06,27,06,36,9.90
2018,06,27,06,37,9.90
2018,06,27,06,38,10.00
2018,06,27,06,39,10.10
2018,06,27,06,40,10.10
2018,06,27,06,41,10.20
2018,06,27,06,42,10.30
2018,06,27,06,43,10.40
2018,06,27,06,44,10.50
2018,06,27,06,45,10.60
2018,06,27,06,46,10.70
2018,06,27,06,47,10.70
2018,06,27,06,48,10.80
2018,06,27,06,49,10.90
2018,06,27,06,50,11.00
2018,06,27,06,51,11.00
2018,06,27,06,52,11.10
2018,06,27,06,53,11.20
2018,06,27,06,54,11.20
2018,06,27,06,55,11.30
2018,06,27,06,56,11.30
2018,06,27,06,57,11.30
2018,06,27,06,58,11.40
2018,06,27,06,59,11.40
2018,06,27,07,00,11.40
2018,06,27,07,01,11.50
2018,06,27,07,02,11.50
2018,06,27,07,03,11.60
2018,06,27,07,04,11.60
2018,06,27,07,05,11.60
2018,06,27,07,06,11.60
2018,06,27,07,07,11.70
2018,06,27,07,08,11.70
2018,06,27,07,09,11.70
2018,06,27,07,10,11.80
2018,06,27,07,11,11.80
2018,06,27,07,12,11.80
2018,06,27,07,13,11.90
2018,06,27,07,14,11.90
2018,06,27,07,15,11.90
2018,06,27,07,16,12.00
2018,06,27,07,17,12.10
2018,06,27,07,18,12.10
2018,06,27,07,19,12.20
2018,06,27,07,20,12.20
2018,06,27,07,21,12.20
2018,06,27,07,22,12.30
2018,06,27,07,23,12.40
2018,06,27,07,24,12.40
2018,06,27,07,25,12.50
2018,06,27,07,26,12.50
2018,06,27,07,27,12.60
2018,06,27,07,28,12.60
2018,06,27,07,29,12.70
2018,06,27,07,30,12.80
2018,06,27,07,31,12.80
2018,06,27,07,32,12.90
2018,06,27,07,33,12.90
2018,06,27,07,34,13.00
2018,06,27,07,35,13.10
2018,06,27,07,36,13.10
2018,06,27,07,37,13.10
2018,06,27,07,38,13.20
2018,06,27,07,39,13.20
2018,06,27,07,40,13.30
2018,06,27,07,41,13.30
2018,06,27,07,42,13.30
2018,06,27,07,43,13.40
2018,06,27,07,44,13.40
2018,06,27,07,45,13.50
2018,06,27,07,46,13.50
2018,06,27,07,47,13.60
2018,06,27,07,48,13.60
2018,06,27,07,49,13.60
2018,06,27,07,50,13.70
2018,06,27,07,51,13.70
2018,06,27,07,52,13.70
2018,06,27,07,53,13.80
2018,06,27,07,54,13.80
2018,06,27,07,55,13.80
2018,06,27,07,56,13.90
2018,06,27,07,57,13.90
2018,06,27,07,58,13.90
2018,06,27,07,59,13.90
2018,06,27,08,00,13.90
2018,06,27,08,01,14.00
2018,06,27,08,02,14.00
2018,06,27,08,03,14.00
2018,06,27,08,04,14.00
2018,06,27,08,05,14.10
2018,06,27,08,06,14.10
2018,06,27,08,07,14.10
2018,06,27,08,08,14.10
2018,06,27,08,09,14.20
2018,06,27,08,10,14.20
2018,06,27,08,11,14.20
2018,06,27,08,12,14.20
2018,06,27,08,13,14.30
2018,06,27,08,14,14.30
2018,06,27,08,15,14.30
2018,06,27,08,16,14.30
2018,06,27,08,17,14.40
2018,06,27,08,18,14.40
2018,06,27,08,19,14.40
2018,06,27,08,20,14.50
2018,06,27,08,21,14.50
2018,06,27,08,22,14.50
2018,06,27,08,23,14.60
2018,06,27,08,24,14.60
2018,06,27,08,25,14.70
2018,06,27,08,26,14.70
2018,06,27,08,27,14.70
2018,06,27,08,28,14.80
2018,06,27,08,29,14.80
2018,06,27,08,30,14.80
2018,06,27,08,31,14.90
2018,06,27,08,32,14.90
2018,06,27,08,33,14.90
2018,06,27,08,34,14.90
2018,06,27,08,35,14.90
2018,06,27,08,36,15.00
2018,06,27,08,37,15.00
2018,06,27,08,38,15.00
2018,06,27,08,39,15.00
2018,06,27,08,40,15.10
2018,06,27,08,41,15.10
2018,06,27,08,42,15.10
2018,06,27,08,43,15.20
2018,06,27,08,44,15.20
2018,06,27,08,45,15.20
2018,06,27,08,46,15.20
2018,06,27,08,47,15.30
2018,06,27,08,48,15.30
2018,06,27,08,49,15.30
2018,06,27,08,50,15.40
2018,06,27,08,51,15.40
2018,06,27,08,52,15.40
2018,06,27,08,53,15.40
2018,06,27,08,54,15.40
2018,06,27,08,55,15.40
2018,06,27,08,56,15.50
2018,06,27,08,57,15.50
2018,06,27,08,58,15.50
2018,06,27,08,59,15.60
2018,06,27,09,00,15.60
2018,06,27,09,01,15.60
2018,06,27,09,02,15.60
2018,06,27,09,03,15.60
2018,06,27,09,04,15.60
2018,06,27,09,05,15.70
2018,06,27,09,06,15.70
2018,06,27,09,07,15.70
2018,06,27,09,08,15.70
2018,06,27,09,09,15.70
2018,06,27,09,10,15.70
2018,06,27,09,11,15.70
2018,06,27,09,12,15.70
2018,06,27,09,13,15.70
2018,06,27,09,14,15.80
2018,06,27,09,15,15.80
2018,06,27,09,16,15.80
2018,06,27,09,17,15.80
2018,06,27,09,18,15.80
2018,06,27,09,19,15.90
2018,06,27,09,20,15.90
2018,06,27,09,21,15.90
2018,06,27,09,22,16.00
2018,06,27,09,23,16.00
2018,06,27,09,24,16.00
2018,06,27,09,25,16.00
2018,06,27,09,26,16.10
2018,06,27,09,27,16.10
2018,06,27,09,28,16.10
2018,06,27,09,29,16.10
2018,06,27,09,30,16.10
2018,06,27,09,31,16.10
2018,06,27,09,32,16.10
2018,06,27,09,33,16.20
2018,06,27,09,34,16.20
2018,06,27,09,35,16.30
2018,06,27,09,36,16.40
2018,06,27,09,37,16.50
2018,06,27,09,38,16.60
2018,06,27,09,39,16.70
2018,06,27,09,40,16.80
2018,06,27,09,41,16.80
2018,06,27,09,42,16.90
2018,06,27,09,43,17.00
2018,06,27,09,44,17.00
2018,06,27,09,45,17.10
2018,06,27,09,46,17.20
2018,06,27,09,47,17.30
2018,06,27,09,48,17.40
2018,06,27,09,49,17.50
2018,06,27,09,50,17.50
2018,06,27,09,51,17.60
2018,06,27,09,52,17.70
2018,06,27,09,53,17.70
2018,06,27,09,54,17.70
2018,06,27,09,55,17.70
2018,06,27,09,56,17.70
2018,06,27,09,57,17.70
2018,06,27,09,58,17.70
2018,06,27,09,59,17.70
2018,06,27,10,00,17.70
2018,06,27,10,01,17.70
2018,06,27,10,02,17.70
2018,06,27,10,03,17.80
2018,06,27,10,04,17.80
2018,06,27,10,05,17.80
2018,06,27,10,06,17.80
2018,06,27,10,07,17.90
2018,06,27,10,08,17.90
2018,06,27,10,09,17.90
2018,06,27,10,10,17.90
2018,06,27,10,11,18.00
2018,06,27,10,12,18.00
2018,06,27,10,13,18.00
2018,06,27,10,14,18.00
2018,06,27,10,15,18.10
2018,06,27,10,16,18.10
2018,06,27,10,17,18.10
2018,06,27,10,18,18.20
2018,06,27,10,19,18.20
2018,06,27,10,20,18.30
2018,06,27,10,21,18.30
2018,06,27,10,22,18.40
2018,06,27,10,23,18.40
2018,06,27,10,24,18.50
2018,06,27,10,25,18.50
2018,06,27,10,26,18.60
2018,06,27,10,27,18.60
2018,06,27,10,28,18.60
2018,06,27,10,29,18.60
2018,06,27,10,30,18.60
2018,06,27,10,31,18.60
2018,06,27,10,32,18.60
2018,06,27,10,33,18.70
2018,06,27,10,34,18.60
2018,06,27,10,35,18.60
2018,06,27,10,36,18.70
2018,06,27,10,37,18.70
2018,06,27,10,38,18.70
2018,06,27,10,39,18.70
2018,06,27,10,40,18.80
2018,06,27,10,41,18.80
2018,06,27,10,42,18.90
2018,06,27,10,43,18.90
2018,06,27,10,44,18.90
2018,06,27,10,45,18.90
2018,06,27,10,46,19.00
2018,06,27,10,47,19.00
2018,06,27,10,48,19.10
2018,06,27,10,49,19.10
2018,06,27,10,50,19.20
2018,06,27,10,51,19.20
2018,06,27,10,52,19.30
2018,06,27,10,53,19.30
2018,06,27,10,54,19.40
2018,06,27,10,55,19.40
2018,06,27,10,56,19.50
2018,06,27,10,57,19.50
2018,06,27,10,58,19.50
2018,06,27,10,59,19.50
2018,06,27,11,00,19.50
2018,06,27,11,01,19.50
2018,06,27,11,02,19.50
2018,06,27,11,03,19.50
2018,06,27,11,04,19.60
2018,06,27,11,05,19.60
2018,06,27,11,06,19.60
2018,06,27,11,07,19.60
2018,06,27,11,08,19.60
2018,06,27,11,09,19.60
2018,06,27,11,10,19.60
2018,06,27,11,11,19.70
2018,06,27,11,12,19.70
2018,06,27,11,13,19.80
2018,06,27,11,14,19.80
2018,06,27,11,15,19.80
2018,06,27,11,16,19.80
2018,06,27,11,17,19.80
2018,06,27,11,18,19.80
2018,06,27,11,19,19.90
2018,06,27,11,20,19.90
2018,06,27,11,21,20.00
2018,06,27,11,22,20.10
2018,06,27,11,23,20.10
2018,06,27,11,24,20.10
2018,06,27,11,25,20.10
2018,06,27,11,26,20.20
2018,06,27,11,27,20.20
2018,06,27,11,28,20.30
2018,06,27,11,29,20.30
2018,06,27,11,30,20.40
2018,06,27,11,31,20.40
2018,06,27,11,32,20.30
2018,06,27,11,33,20.30
2018,06,27,11,34,20.20
2018,06,27,11,35,20.20
2018,06,27,11,36,20.20
2018,06,27,11,37,20.30
2018,06,27,11,38,20.30
2018,06,27,11,39,20.40
2018,06,27,11,40,20.40
2018,06,27,11,41,20.50
2018,06,27,11,42,20.40
2018,06,27,11,43,20.40
2018,06,27,11,44,20.30
2018,06,27,11,45,20.30
2018,06,27,11,46,20.30
2018,06,27,11,47,20.20
2018,06,27,11,48,20.30
2018,06,27,11,49,20.30
2018,06,27,11,50,20.30
2018,06,27,11,51,20.30
2018,06,27,11,52,20.40
2018,06,27,11,53,20.40
2018,06,27,11,54,20.50
2018,06,27,11,55,20.60
2018,06,27,11,56,20.60
2018,06,27,11,57,20.70
2018,06,27,11,58,20.80
2018,06,27,11,59,20.80
2018,06,27,12,00,20.70
2018,06,27,12,01,20.70
2018,06,27,12,02,20.60
2018,06,27,12,03,20.50
2018,06,27,12,04,20.50
2018,06,27,12,05,20.40
2018,06,27,12,06,20.30
2018,06,27,12,07,20.30
2018,06,27,12,08,20.30
2018,06,27,12,09,20.30
2018,06,27,12,10,20.30
2018,06,27,12,11,20.30
2018,06,27,12,12,20.30
2018,06,27,12,13,20.30
2018,06,27,12,14,20.40
2018,06,27,12,15,20.40
2018,06,27,12,16,20.50
2018,06,27,12,17,20.60
2018,06,27,12,18,20.60
2018,06,27,12,19,20.70
2018,06,27,12,20,20.70
2018,06,27,12,21,20.70
2018,06,27,12,22,20.70
2018,06,27,12,23,20.70
2018,06,27,12,24,20.60
2018,06,27,12,25,20.60
2018,06,27,12,26,20.60
2018,06,27,12,27,20.60
2018,06,27,12,28,20.70
2018,06,27,12,29,20.70
2018,06,27,12,30,20.70
2018,06,27,12,31,20.80
2018,06,27,12,32,20.80
2018,06,27,12,33,20.90
2018,06,27,12,34,21.00
2018,06,27,12,35,21.00
2018,06,27,12,36,21.10
2018,06,27,12,37,21.20
2018,06,27,12,38,21.20
2018,06,27,12,39,21.20
2018,06,27,12,40,21.30
2018,06,27,12,41,21.20
2018,06,27,12,42,21.20
2018,06,27,12,43,21.20
2018,06,27,12,44,21.20
2018,06,27,12,45,21.20
2018,06,27,12,46,21.20
2018,06,27,12,47,21.20
2018,06,27,12,48,21.20
2018,06,27,12,49,21.30
2018,06,27,12,50,21.30
2018,06,27,12,51,21.30
2018,06,27,12,52,21.40
2018,06,27,12,53,21.40
2018,06,27,12,54,21.50
2018,06,27,12,55,21.60
2018,06,27,12,56,21.60
2018,06,27,12,57,21.60
2018,06,27,12,58,21.60
2018,06,27,12,59,21.60
2018,06,27,13,00,21.70
2018,06,27,13,01,21.70
2018,06,27,13,02,21.70
2018,06,27,13,03,21.60
2018,06,27,13,04,21.70
2018,06,27,13,05,21.70
2018,06,27,13,06,21.60
2018,06,27,13,07,21.70
2018,06,27,13,08,21.70
2018,06,27,13,09,21.70
2018,06,27,13,10,21.80
2018,06,27,13,11,21.80
2018,06,27,13,12,21.70
2018,06,27,13,13,21.70
2018,06,27,13,14,21.70
2018,06,27,13,15,21.70
2018,06,27,13,16,21.70
2018,06,27,13,17,21.70
2018,06,27,13,18,21.70
2018,06,27,13,19,21.80
2018,06,27,13,20,21.80
2018,06,27,13,21,21.90
2018,06,27,13,22,21.90
2018,06,27,13,23,21.90
2018,06,27,13,24,22.00
2018,06,27,13,25,22.00
2018,06,27,13,26,22.00
2018,06,27,13,27,22.00
2018,06,27,13,28,22.00
2018,06,27,13,29,22.00
2018,06,27,13,30,21.90
2018,06,27,13,31,21.90
2018,06,27,13,32,22.00
2018,06,27,13,33,22.00
2018,06,27,13,34,22.10
2018,06,27,13,35,22.10
2018,06,27,13,36,22.20
2018,06,27,13,37,22.30
2018,06,27,13,38,22.30
2018,06,27,13,39,22.30
2018,06,27,13,40,22.20
2018,06,27,13,41,22.20
2018,06,27,13,42,22.20
2018,06,27,13,43,22.10
2018,06,27,13,44,22.10
2018,06,27,13,45,22.10
2018,06,27,13,46,22.20
2018,06,27,13,47,22.20
2018,06,27,13,48,22.20
2018,06,27,13,49,22.30
2018,06,27,13,50,22.30
2018,06,27,13,51,22.30
2018,06,27,13,52,22.30
2018,06,27,13,53,22.30
2018,06,27,13,54,22.30
2018,06,27,13,55,22.20
2018,06,27,13,56,22.20
2018,06,27,13,57,22.10
2018,06,27,13,58,22.10
2018,06,27,13,59,22.00
2018,06,27,14,00,22.00
2018,06,27,14,01,21.90
2018,06,27,14,02,22.00
2018,06,27,14,03,21.90
2018,06,27,14,04,21.90
2018,06,27,14,05,21.90
2018,06,27,14,06,21.80
2018,06,27,14,07,21.80
2018,06,27,14,08,21.70
2018,06,27,14,09,21.60
2018,06,27,14,10,21.50
2018,06,27,14,11,21.50
2018,06,27,14,12,21.50
2018,06,27,14,13,21.50
2018,06,27,14,14,21.60
2018,06,27,14,15,21.70
2018,06,27,14,16,21.80
2018,06,27,14,17,21.90
2018,06,27,14,18,22.00
2018,06,27,14,19,22.00
2018,06,27,14,20,22.10
2018,06,27,14,21,22.20
2018,06,27,14,22,22.20
2018,06,27,14,23,22.20
2018,06,27,14,24,22.20
2018,06,27,14,25,22.20
2018,06,27,14,26,22.30
2018,06,27,14,27,22.20
2018,06,27,14,28,22.20
2018,06,27,14,29,22.20
2018,06,27,14,30,22.10
2018,06,27,14,31,22.10
2018,06,27,14,32,22.10
2018,06,27,14,33,22.10
2018,06,27,14,34,22.10
2018,06,27,14,35,22.10
2018,06,27,14,36,22.10
2018,06,27,14,37,22.00
2018,06,27,14,38,22.00
2018,06,27,14,39,21.90
2018,06,27,14,40,21.90
2018,06,27,14,41,21.90
2018,06,27,14,42,22.00
2018,06,27,14,43,22.00
2018,06,27,14,44,22.00
2018,06,27,14,45,22.00
2018,06,27,14,46,22.10
2018,06,27,14,47,22.10
2018,06,27,14,48,22.10
2018,06,27,14,49,22.10
2018,06,27,14,50,22.10
2018,06,27,14,51,22.10
2018,06,27,14,52,22.10
2018,06,27,14,53,22.10
2018,06,27,14,54,22.20
2018,06,27,14,55,22.30
2018,06,27,14,56,22.40
2018,06,27,14,57,22.40
2018,06,27,14,58,22.40
2018,06,27,14,59,22.40
2018,06,27,15,00,22.30
2018,06,27,15,01,22.30
2018,06,27,15,02,22.30
2018,06,27,15,03,22.20
2018,06,27,15,04,22.20
2018,06,27,15,05,22.20
2018,06,27,15,06,22.10
2018,06,27,15,07,22.10
2018,06,27,15,08,22.10
2018,06,27,15,09,22.10
2018,06,27,15,10,22.00
2018,06,27,15,11,22.00
2018,06,27,15,12,22.00
2018,06,27,15,13,22.00
2018,06,27,15,14,22.10
2018,06,27,15,15,22.10
2018,06,27,15,16,22.10
2018,06,27,15,17,22.20
2018,06,27,15,18,22.10
2018,06,27,15,19,22.10
2018,06,27,15,20,22.00
2018,06,27,15,21,21.90
2018,06,27,15,22,21.80
2018,06,27,15,23,21.80
2018,06,27,15,24,21.80
2018,06,27,15,25,21.80
2018,06,27,15,26,21.80
2018,06,27,15,27,21.80
2018,06,27,15,28,21.80
2018,06,27,15,29,21.80
2018,06,27,15,30,21.80
2018,06,27,15,31,21.80
2018,06,27,15,32,21.80
2018,06,27,15,33,21.80
2018,06,27,15,34,21.80
2018,06,27,15,35,21.80
2018,06,27,15,36,21.80
2018,06,27,15,37,21.80
2018,06,27,15,38,21.80
2018,06,27,15,39,21.80
2018,06,27,15,40,21.70
2018,06,27,15,41,21.80
2018,06,27,15,42,21.70
2018,06,27,15,43,21.70
2018,06,27,15,44,21.60
2018,06,27,15,45,21.50
2018,06,27,15,46,21.40
2018,06,27,15,47,21.40
2018,06,27,15,48,21.40
2018,06,27,15,49,21.50
2018,06,27,15,50,21.50
2018,06,27,15,51,21.40
2018,06,27,15,52,21.40
2018,06,27,15,53,21.30
2018,06,27,15,54,21.20
2018,06,27,15,55,21.20
2018,06,27,15,56,21.10
2018,06,27,15,57,21.10
2018,06,27,15,58,21.10
2018,06,27,15,59,21.10
2018,06,27,16,00,21.10
2018,06,27,16,01,21.10
2018,06,27,16,02,21.10
2018,06,27,16,03,21.20
2018,06,27,16,04,21.20
2018,06,27,16,05,21.30
2018,06,27,16,06,21.30
2018,06,27,16,07,21.30
2018,06,27,16,08,21.30
2018,06,27,16,09,21.30
2018,06,27,16,10,21.30
2018,06,27,16,11,21.30
2018,06,27,16,12,21.30
2018,06,27,16,13,21.30
2018,06,27,16,14,21.30
2018,06,27,16,15,21.30
2018,06,27,16,16,21.30
2018,06,27,16,17,21.30
2018,06,27,16,18,21.20
2018,06,27,16,19,21.20
2018,06,27,16,20,21.20
2018,06,27,16,21,21.10
2018,06,27,16,22,21.00
2018,06,27,16,23,20.90
2018,06,27,16,24,20.80
2018,06,27,16,25,20.80
2018,06,27,16,26,20.80
2018,06,27,16,27,20.90
2018,06,27,16,28,20.80
2018,06,27,16,29,20.90
2018,06,27,16,30,20.90
2018,06,27,16,31,20.90
2018,06,27,16,32,20.90
2018,06,27,16,33,21.00
2018,06,27,16,34,21.00
2018,06,27,16,35,21.10
2018,06,27,16,36,21.10
2018,06,27,16,37,21.10
2018,06,27,16,38,21.20
2018,06,27,16,39,21.20
2018,06,27,16,40,21.10
2018,06,27,16,41,21.10
2018,06,27,16,42,21.10
2018,06,27,16,43,21.00
2018,06,27,16,44,21.00
2018,06,27,16,45,21.00
2018,06,27,16,46,21.00
2018,06,27,16,47,21.00
2018,06,27,16,48,20.90
2018,06,27,16,49,20.90
2018,06,27,16,50,20.90
2018,06,27,16,51,20.90
2018,06,27,16,52,20.90
2018,06,27,16,53,20.90
2018,06,27,16,54,20.90
2018,06,27,16,55,20.80
2018,06,27,16,56,20.80
2018,06,27,16,57,20.70
2018,06,27,16,58,20.70
2018,06,27,16,59,20.70
2018,06,27,17,00,20.70
2018,06,27,17,01,20.70
2018,06,27,17,02,20.70
2018,06,27,17,03,20.70
2018,06,27,17,04,20.70
2018,06,27,17,05,20.70
2018,06,27,17,06,20.80
2018,06,27,17,07,20.80
2018,06,27,17,08,20.80
2018,06,27,17,09,20.80
2018,06,27,17,10,20.80
2018,06,27,17,11,20.80
2018,06,27,17,12,20.80
2018,06,27,17,13,20.70
2018,06,27,17,14,20.80
2018,06,27,17,15,20.80
2018,06,27,17,16,20.80
2018,06,27,17,17,20.70
2018,06,27,17,18,20.70
2018,06,27,17,19,20.60
2018,06,27,17,20,20.60
2018,06,27,17,21,20.50
2018,06,27,17,22,20.50
2018,06,27,17,23,20.40
2018,06,27,17,24,20.40
2018,06,27,17,25,20.30
2018,06,27,17,26,20.30
2018,06,27,17,27,20.30
2018,06,27,17,28,20.20
2018,06,27,17,29,20.20
2018,06,27,17,30,20.10